Date String (YYYY-MM-DD hh:mm:ss) UTC,Instrument flags,Ambient pressure (hPa),Sample flow (lpm),Bypass flow (lpm),Sample temperature (°C),Ambient temperature (°C),ASC tube jacket temperature (°C),LED temperature (°C),Box temperature (°C),Sample RH (%),Span deviation,Mass concentration (μg/m³),Mass concentration (μg/m³),Mass concentration (μg/m³)
DateTimeUTC,F1_M11,P_M11,Q1_M11,Q2_M11,T1_M11,T2_M11,T3_M11,T4_M11,T5_M11,U1_M11,ZSPAN_M11,X0_M11,X2_M11,X1_M11
2022-02-22 17:00:00,,0825.9,4.99,0.00,22.8,22.9,00.0,31.6,24.7,03.1,0000.5,0008.09,0004.92,0004.50
2022-02-22 17:01:00,,0825.9,5.01,0.00,22.8,22.5,00.0,31.6,24.6,03.2,0002.6,0007.98,0004.96,0004.53
2022-02-22 17:02:00,,0825.8,5.00,0.00,22.8,22.3,00.0,31.6,24.5,03.2,0002.2,0008.05,0004.98,0004.55
2022-02-22 17:03:00,,0825.7,5.00,0.00,22.7,22.0,00.0,31.6,24.4,03.1,0001.8,0008.14,0005.02,0004.57
2022-02-22 17:04:00,,0825.8,5.00,0.00,22.7,21.9,00.0,31.6,24.3,03.1,0000.7,0008.22,0005.06,0004.59
2022-02-22 17:05:00,,0825.8,5.00,0.00,22.6,21.8,00.0,31.6,24.3,03.2,0000.1,0008.20,0005.08,0004.60
2022-02-22 17:06:00,,0825.8,5.00,0.00,22.6,21.7,00.0,31.6,24.2,03.1,0000.2,0008.39,0005.11,0004.61
2022-02-22 17:07:00,,0825.8,5.00,0.00,22.6,21.8,00.0,31.6,24.2,03.2,-000.0,0008.47,0005.12,0004.60
2022-02-22 17:08:00,,0825.8,4.99,0.00,22.6,22.6,00.0,31.6,24.4,03.2,-000.0,0008.48,0005.10,0004.60
2022-02-22 17:09:00,,0825.9,5.01,0.00,22.8,23.4,00.0,31.7,24.7,03.1,-000.6,0008.80,0005.14,0004.61
2022-02-22 17:10:00,,0825.9,5.00,0.00,22.9,23.6,00.0,31.7,24.8,03.1,-000.8,0008.98,0005.10,0004.60
2022-02-22 17:11:00,,0825.9,5.00,0.00,22.9,23.2,00.0,31.7,24.8,03.2,-000.3,0008.98,0005.08,0004.58
2022-02-22 17:12:00,,0825.9,5.01,0.00,22.9,22.9,00.0,31.7,24.7,03.2,-000.3,0009.21,0005.10,0004.57
2022-02-22 17:13:00,,0825.9,4.99,0.00,22.8,22.6,00.0,31.7,24.6,03.2,-000.5,0009.15,0005.08,0004.55
2022-02-22 17:14:00,,0825.9,5.00,0.00,22.8,22.3,00.0,31.7,24.5,03.3,-000.7,0009.16,0005.06,0004.52
2022-02-22 17:15:00,,0825.8,5.00,0.00,22.7,22.1,00.0,31.7,24.4,03.2,-000.4,0009.10,0005.02,0004.48
2022-02-22 17:16:00,,0825.8,5.00,0.00,22.7,21.9,00.0,31.7,24.3,03.2,0000.2,0009.14,0004.98,0004.44
2022-02-22 17:17:00,,0825.7,5.00,0.00,22.6,21.8,00.0,31.6,24.2,03.2,-000.3,0009.21,0004.92,0004.37
2022-02-22 17:18:00,,0825.8,5.00,0.00,22.5,21.8,00.0,31.6,24.1,03.2,-000.8,0008.97,0004.81,0004.29
2022-02-22 17:19:00,,0825.7,5.02,0.00,22.6,22.4,00.0,31.6,24.3,03.1,-001.2,0008.77,0004.72,0004.24
2022-02-22 17:20:00,,0825.9,5.00,0.00,22.7,23.2,00.0,31.7,24.5,03.0,-000.3,0008.32,0004.62,0004.18
2022-02-22 17:21:00,,0825.8,5.00,0.00,22.8,23.5,00.0,31.7,24.7,03.1,0000.1,0008.12,0004.57,0004.13
2022-02-22 17:22:00,,0825.9,4.99,0.00,22.8,23.0,00.0,31.7,24.7,03.1,0000.2,0008.18,0004.54,0004.09
2022-02-22 17:23:00,,0825.9,5.00,0.00,22.8,22.5,00.0,31.7,24.5,03.1,0000.6,0007.93,0004.48,0004.06
2022-02-22 17:24:00,,0825.8,4.99,0.00,22.7,22.1,00.0,31.7,24.4,03.1,0001.5,0007.82,0004.43,0004.03
2022-02-22 17:25:00,,0825.8,5.01,0.00,22.7,21.8,00.0,31.7,24.3,03.1,0001.6,0007.69,0004.38,0004.00
2022-02-22 17:26:00,,0825.8,5.00,0.00,22.6,21.5,00.0,31.6,24.2,03.1,0001.5,0007.90,0004.35,0003.98
2022-02-22 17:27:00,,0825.8,5.00,0.00,22.5,21.3,00.0,31.6,24.1,03.1,0000.9,0007.85,0004.32,0003.98
2022-02-22 17:28:00,,0825.8,4.99,0.00,22.4,21.1,00.0,31.6,24.0,03.0,0001.5,0007.56,0004.31,0003.98
2022-02-22 17:29:00,,0825.9,5.00,0.00,22.4,21.4,00.0,31.5,24.0,03.0,0002.5,0007.71,0004.34,0004.00
2022-02-22 17:30:00,,0825.9,5.01,0.00,22.5,22.3,00.0,31.6,24.2,03.1,0003.4,0007.84,0004.36,0004.01
2022-02-22 17:31:00,,0825.8,5.00,0.00,22.6,23.0,00.0,31.6,24.4,03.0,0002.9,0007.93,0004.41,0004.04
2022-02-22 17:32:00,,0825.8,5.00,0.00,22.7,22.8,00.0,31.6,24.5,02.9,0002.6,0007.87,0004.43,0004.06
2022-02-22 17:33:00,,0825.7,5.00,0.00,22.7,22.6,00.0,31.6,24.5,03.0,0002.1,0007.72,0004.41,0004.06
2022-02-22 17:34:00,,0825.8,4.99,0.00,22.7,22.3,00.0,31.6,24.4,03.0,0001.3,0007.72,0004.41,0004.05
2022-02-22 17:35:00,,0825.8,5.02,0.00,22.6,22.0,00.0,31.6,24.3,03.0,0000.0,0007.85,0004.47,0004.07
2022-02-22 17:36:00,,0825.8,4.99,0.00,22.6,21.9,00.0,31.6,24.3,03.0,0001.0,0008.23,0004.52,0004.09
2022-02-22 17:37:00,,0825.8,4.99,0.00,22.5,21.7,00.0,31.6,24.2,03.0,0001.5,0008.00,0004.52,0004.11
2022-02-22 17:38:00,,0825.8,5.00,0.00,22.5,21.6,00.0,31.5,24.1,03.1,0001.7,0007.96,0004.55,0004.13
2022-02-22 17:39:00,,0825.9,5.00,0.00,22.5,21.5,00.0,31.5,24.1,03.0,0001.1,0007.98,0004.57,0004.15
2022-02-22 17:40:00,,0825.9,5.01,0.00,22.5,22.1,00.0,31.5,24.2,03.0,0000.4,0007.89,0004.58,0004.17
2022-02-22 17:41:00,,0826.0,5.00,0.00,22.6,23.0,00.0,31.6,24.4,02.9,0000.0,0007.80,0004.58,0004.17
2022-02-22 17:42:00,,0826.0,5.00,0.00,22.8,23.7,00.0,31.6,24.7,03.0,0000.0,0007.76,0004.54,0004.14
2022-02-22 17:43:00,,0825.9,5.00,0.00,22.8,23.4,00.0,31.6,24.7,02.9,0000.0,0007.81,0004.54,0004.10
2022-02-22 17:44:00,,0826.0,4.99,0.00,22.8,23.1,00.0,31.6,24.7,02.8,0000.1,0007.71,0004.49,0004.06
2022-02-22 17:45:00,,0826.0,5.01,0.00,22.8,22.8,00.0,31.6,24.6,02.7,0000.2,0007.62,0004.41,0004.00
2022-02-22 17:46:00,,0826.0,4.99,0.00,22.8,22.5,00.0,31.7,24.6,02.8,0000.8,0007.51,0004.31,0003.93
2022-02-22 17:47:00,,0825.9,5.00,0.00,22.8,22.3,00.0,31.7,24.5,02.8,0001.1,0006.80,0004.21,0003.86
2022-02-22 17:48:00,,0826.0,5.00,0.00,22.8,22.2,00.0,31.7,24.5,02.9,0000.7,0006.68,0004.16,0003.81
2022-02-22 17:49:00,,0825.9,5.00,0.00,22.7,22.1,00.0,31.7,24.5,03.0,0001.0,0006.43,0004.11,0003.79
2022-02-22 17:50:00,,0826.0,5.01,0.00,22.7,22.0,00.0,31.7,24.4,03.0,0001.4,0006.25,0004.07,0003.75
2022-02-22 17:51:00,,0825.9,5.01,0.00,22.7,21.9,00.0,31.6,24.4,03.0,0001.6,0006.20,0004.04,0003.72
2022-02-22 17:52:00,,0825.9,5.00,0.00,22.7,21.8,00.0,31.6,24.4,02.9,0001.5,0006.16,0004.01,0003.69
2022-02-22 17:53:00,,0826.0,4.99,0.00,22.6,21.8,00.0,31.6,24.3,02.8,0002.1,0006.22,0003.98,0003.65
2022-02-22 17:54:00,,0826.0,5.00,0.00,22.6,22.1,00.0,31.6,24.3,02.7,0002.2,0005.86,0003.87,0003.59
2022-02-22 17:55:00,,0826.0,4.99,0.00,22.8,23.0,00.0,31.7,24.6,02.7,0002.0,0005.78,0003.83,0003.56
2022-02-22 17:56:00,,0826.0,5.01,0.00,22.9,23.6,00.0,31.7,24.8,02.7,0000.0,0006.27,0003.80,0003.53
2022-02-22 17:57:00,,0826.0,5.00,0.00,23.0,23.4,00.0,31.7,24.9,02.7,0000.0,0006.55,0003.75,0003.49
2022-02-22 17:58:00,,0826.0,5.01,0.00,22.9,23.0,00.0,31.7,24.8,02.5,0000.0,0006.64,0003.74,0003.47
2022-02-22 17:59:00,,0826.0,4.99,0.00,22.9,22.7,00.0,31.7,24.7,02.6,0000.0,0006.57,0003.70,0003.42
